Location: Norton
(51.3000°N, 0.8167°E)
Time: 14:10:52
(UTC+00:00)

SeaSat 1 - Pass Details

Date: 03 March 2021
Orbit: 744 x 748 km, 108.0° (Epoch: 10 April)

Event Time Altitude Azimuth Distance (km) Brightness Sun altitude
Rises 19:32:54 0° 30° (NNE) 3,203 5.5 -18.2°
Reaches altitude 10° 19:35:10 10° 30° (NNE) 2,276 4.8 -18.5°
Maximum altitude 19:40:08 86° 302° (WNW) 757 2.4 -19.3°
Drops below altitude 10° 19:45:04 10° 215° (SW) 2,262 5.2 -20.0°
Sets 19:47:19 0° 215° (SW) 3,183 6.0 -20.4°
